Temp
7 7 7 8 8 8 8 8 9 10 12 12 11 10 10 11 10 11 11 11 11 11 11 11 12 12 12 12 12 11 11 10 10 10 10 9 8 8
7 6 7 7 7 7 7 8 8 8 10 10 10 10 10 10 10 10 10 10 10 10 10 11 10 10 10 9 8 8 7 7 7 7 7 7 7 7
6 6 6 7 7 7 7 7 7 7 8 9 9 9 9 9 9 9 9 9 7 7 7 7 6 6 6 6 6 6 6 6 6 5 6 5 5 5
7 6 7 7 7 7 7 7 6 6 7 8 8 8 8 8 8 8 7 7 7 6 5 5 5 5 5 5 5 4 4 4 4 4 3 3 3 3
6 7 7 7 7 8 8 8 7 7 7 6 7 7 7 8 7 7 7 7 6 5 5 4 5 5 5 5 4 4 4 3 3 2 2 2 2 2
6 6 6 6 6 7 7 7 7 7 7 6 7 7 7 7 7 6 6 5 4 4 4 4 4 4 4 4 4 4 3 2 1 1 1 1 1 1
6 6 6 6 6 6 6 6 6 7 6 6 6 6 5 5 5 4 5 4 3 3 3 3 3 3 3 3 3 2 2 1 0 0 1 0 0 0
6 6 6 6 6 6 5 5 5 5 5 5 4 5 5 5 4 3 3 3 5 2 2 2 2 2 1 2 2 2 1 -0 -0 -0 -0 -0 -0 -0
6 6 6 6 5 5 5 5 5 5 4 4 4 3 4 3 3 2 2 2 3 2 2 2 1 0 1 1 1 1 0 -0 -1 -1 -1 -1 -1 -1
6 6 5 5 5 5 4 4 4 4 4 4 4 3 3 2 2 2 2 1 1 1 1 1 1 0 1 1 0 -0 -1 -1 -1 -1 -1 -2 -2 -2
6 6 5 5 6 5 4 4 4 4 4 3 3 3 3 3 2 2 0 0 2 0 -0 -0 -1 -1 0 -0 -0 -1 -1 -1 -1 -1 -1 -2 -2 -2
6 6 6 5 6 5 4 3 2 4 4 3 1 1 0 0 1 1 1 -0 -0 -0 -1 -1 -2 -1 -0 -1 -1 -1 -2 -2 -1 -2 -2 -2 -2 -3
5 5 6 6 5 5 4 4 4 4 3 3 2 0 0 0 0 0 0 0 -0 -1 -0 -1 -2 -2 -2 -2 -1 -1 -2 -2 -2 -2 -2 -2 -2 -2
4 5 5 5 5 5 4 4 3 3 2 2 0 -1 -1 -0 1 0 0 -0 -1 -1 -1 -1 -2 -2 -3 -3 -2 -2 -2 -2 -3 -3 -3 -3 -3 -3
3 4 4 4 4 4 4 4 3 2 1 1 0 -0 1 2 1 -0 -1 -1 -2 -2 -2 -2 -3 -3 -3 -4 -4 -4 -4 -4 -4 -4 -4 -4 -4 -3
4 4 3 3 3 3 3 3 2 1 1 1 1 1 1 0 0 -0 -1 -2 -3 -2 -2 -3 -4 -4 -5 -6 -6 -5 -6 -5 -4 -5 -5 -4 -4 -4
3 3 3 3 2 2 2 2 2 2 1 1 1 0 0 -0 -1 -1 -2 -2 -3 -4 -4 -4 -4 -5 -6 -5 -6 -6 -6 -7 -5 -5 -6 -6 -4 -4
2 2 1 2 1 1 1 2 2 1 1 1 0 -0 -1 -1 -1 -2 -3 -3 -5 -4 -4 -4 -5 -6 -6 -5 -4 -6 -7 -6 -6 -6 -6 -7 -6 -4
1 1 1 -0 -0 -0 0 0 -0 1 1 -0 -1 -1 -2 -2 -3 -3 -4 -5 -5 -5 -5 -4 -5 -6 -4 -4 -5 -6 -6 -6 -6 -6 -6 -7 -7 -5
2 1 -0 -0 -0 -0 -0 0 0 0 -0 -1 -2 -2 -2 -3 -3 -3 -4 -5 -5 -5 -6 -5 -6 -6 -5 -4 -5 -6 -6 -6 -6 -7 -7 -6 -5 -5
2 1 1 1 -0 -1 -1 -1 -0 -1 -1 -1 -2 -2 -2 -3 -3 -3 -4 -4 -4 -5 -5 -6 -4 -4 -5 -6 -7 -7 -6 -6 -6 -7 -6 -7 -7 -6
1 1 0 -0 -0 -1 -1 -1 -1 -1 -1 -1 -2 -2 -2 -2 -3 -3 -4 -4 -4 -5 -5 -5 -5 -6 -7 -7 -6 -7 -7 -6 -6 -6 -6 -6 -6 -5
1 1 -0 -1 -2 -2 -2 -1 -1 -1 -1 -1 -1 -2 -2 -2 -3 -3 -4 -4 -4 -5 -5 -7 -6 -7 -7 -7 -7 -8 -8 -7 -7 -6 -5 -6 -6 -6
Height
802 801 799 797 796 794 791 790 788 784 780 777 775 773 770 768 766 763 761 760 758 755 754 756 756 756 757 760 760 762 762 765 764 764 765 765 767 765
800 798 797 795 794 791 790 788 786 785 782 778 775 773 771 769 767 765 764 762 760 758 757 757 758 759 760 760 761 761 761 763 765 765 764 764 767 765
797 796 795 793 791 789 788 786 785 783 781 777 775 773 772 770 769 766 765 763 762 760 759 758 758 759 759 761 761 762 763 763 763 762 763 765 765 763
793 792 792 791 789 787 786 784 783 782 781 777 775 773 771 770 768 767 766 764 763 762 761 761 761 762 762 762 762 763 763 763 762 762 763 764 760 762
789 789 788 787 785 784 782 781 779 778 777 776 774 772 771 769 767 766 766 765 764 763 762 762 762 762 762 762 762 762 762 762 762 762 763 761 764 762
785 785 784 783 781 780 779 778 776 775 774 772 771 769 767 766 765 765 764 763 763 762 762 762 763 763 763 763 763 764 764 764 764 764 764 763 762 761
781 780 779 779 777 776 775 775 774 772 771 769 768 767 765 765 764 764 764 763 762 761 761 761 761 761 762 762 763 764 764 764 764 763 763 762 761 759
775 774 774 773 773 772 771 771 770 769 768 766 766 765 764 763 763 763 762 762 761 760 760 760 759 760 760 761 761 762 763 762 762 762 761 760 759 758
769 769 768 768 767 767 766 766 765 765 765 764 762 762 761 761 760 760 760 760 759 758 758 757 756 758 757 758 759 759 760 760 760 759 758 757 756 755
762 762 762 762 762 762 762 760 760 759 759 759 758 758 758 757 757 757 756 756 756 755 755 755 754 754 755 755 756 757 757 757 757 757 756 755 754 753
755 755 755 755 755 756 755 754 753 752 753 753 753 753 753 754 754 754 754 754 752 752 751 752 751 752 752 753 754 755 755 755 756 755 754 753 752 751
748 748 748 748 748 749 749 748 747 746 748 749 748 749 749 749 750 751 752 752 752 751 750 752 750 750 751 750 751 752 753 753 753 753 752 751 750 748
742 741 740 741 742 742 742 741 740 742 743 744 744 744 745 745 746 747 747 748 748 748 748 749 748 749 749 749 749 749 750 750 750 750 750 748 747 745
734 734 734 734 735 735 736 735 737 738 738 739 739 739 740 740 742 743 743 744 744 745 745 746 746 748 748 748 748 747 747 747 747 747 747 746 744 742
729 727 727 727 728 728 728 729 731 732 732 733 733 733 733 736 738 739 740 741 741 741 741 742 743 744 745 744 745 745 745 745 744 744 744 743 741 738
723 722 721 722 721 721 722 723 724 725 725 726 727 728 729 730 731 732 734 736 737 737 737 738 740 741 741 742 742 742 742 742 741 741 740 739 737 735
718 716 716 715 714 713 713 714 716 717 718 718 719 720 722 723 723 725 727 728 729 729 730 732 735 737 738 738 738 737 737 737 737 737 736 735 733 731
714 712 710 709 709 708 707 707 708 708 708 709 709 711 713 714 715 717 720 722 722 723 725 727 730 733 734 732 732 731 732 732 732 733 733 731 728 728
709 708 706 705 704 703 703 702 701 700 701 701 702 702 703 705 707 708 710 713 715 718 720 721 724 726 728 726 726 726 728 728 729 729 730 728 725 723
704 702 701 700 699 697 696 695 694 694 694 694 694 694 695 697 698 698 700 702 706 709 713 714 716 718 721 721 721 722 722 724 725 725 725 723 721 719
697 697 695 693 692 691 690 689 688 687 687 686 686 686 687 688 688 689 691 693 695 699 703 705 706 713 716 718 720 719 719 719 721 721 721 720 719 717
690 689 688 687 685 684 683 682 681 680 680 679 678 678 678 678 680 681 682 684 686 688 690 697 702 707 710 713 714 715 715 716 717 717 716 716 717 715
683 681 680 679 677 677 675 675 674 672 672 671 671 670 671 671 671 671 674 676 678 681 684 689 695 700 704 707 711 712 712 712 713 712 711 711 712 712
Wind_Speed
11 10 9 8 8 7 6 5 4 3 6 5 4 7 8 8 11 12 13 11 12 13 12 10 9 7 6 4 3 2 3 4 3 1 1 2 4 4
12 12 10 9 8 6 6 5 4 4 3 4 7 5 5 7 8 9 9 9 9 8 6 6 5 4 3 4 6 10 11 12 10 9 7 7 6 6
10 10 10 9 8 7 7 6 5 5 5 7 8 8 6 7 7 7 7 8 9 9 9 8 9 10 11 12 13 13 11 9 7 8 6 3 5 5
9 10 11 10 10 9 8 7 7 6 6 10 9 7 8 9 6 5 6 7 6 8 8 8 7 6 7 8 7 7 6 4 3 2 4 5 7 6
9 11 11 11 11 10 10 10 10 10 10 10 10 9 9 10 6 4 4 4 5 4 3 5 3 2 2 3 3 4 4 5 5 4 6 6 5 8
13 13 13 13 11 10 11 11 10 10 11 11 11 12 12 9 7 6 5 5 4 3 1 0 4 4 3 2 1 1 3 4 5 4 4 5 6 7
15 15 15 15 13 13 11 10 10 10 9 7 6 6 5 4 2 3 3 3 5 3 4 5 5 6 7 4 3 2 3 1 1 2 3 3 4 6
20 18 17 17 17 15 14 12 11 10 9 8 6 8 9 9 9 5 4 2 2 3 2 4 4 6 8 8 6 4 3 2 1 2 2 2 3 4
22 22 21 19 17 17 16 15 15 15 16 12 10 10 10 9 10 7 6 4 4 6 5 3 4 5 8 8 7 7 6 3 2 1 3 5 5 6
24 23 23 22 20 18 19 19 18 19 18 17 16 15 13 13 11 9 7 6 7 8 5 3 3 4 6 4 7 6 5 2 1 2 5 6 7 7
26 25 24 25 23 20 20 22 21 20 16 17 17 15 13 12 11 10 8 5 3 4 5 4 3 3 4 8 10 8 7 3 3 4 6 6 7 9
28 27 26 26 25 22 22 22 21 22 16 16 16 13 11 11 10 9 9 7 4 2 5 4 2 1 1 5 11 11 9 7 5 7 6 6 8 9
28 29 29 25 24 24 23 26 28 22 17 15 15 15 17 17 17 14 12 11 9 8 6 5 4 4 3 2 5 10 9 8 8 7 6 7 8 9
27 28 28 25 22 21 23 25 24 21 20 17 14 14 17 21 20 18 15 14 13 12 9 10 5 7 4 1 3 5 8 9 10 6 8 8 9 9
24 25 23 22 21 20 21 22 21 19 21 20 19 21 20 18 16 16 16 16 15 14 14 14 13 11 10 6 3 4 3 4 10 8 7 10 9 10
17 18 19 19 19 19 19 21 22 21 25 24 25 24 20 17 18 18 18 17 15 15 16 16 15 14 12 10 8 7 8 4 6 8 10 10 9 8
14 16 15 15 16 18 20 22 22 23 25 28 27 26 22 19 19 19 20 18 15 8 11 16 16 16 15 14 9 12 10 9 8 8 8 11 10 7
14 16 17 18 18 19 20 22 24 26 29 30 30 28 26 25 24 21 22 22 17 15 13 12 15 10 9 12 20 15 11 10 8 7 9 8 10 8
13 13 14 14 16 18 20 21 20 24 24 27 27 27 26 25 21 22 23 20 17 15 16 16 16 12 6 4 3 11 11 8 6 7 8 7 9 12
14 14 14 14 15 18 20 21 22 22 23 23 24 25 24 23 20 21 22 22 19 16 14 18 19 19 13 5 4 5 10 10 8 8 8 9 12 9
17 17 18 20 20 18 19 20 20 21 22 22 23 24 24 23 22 23 23 24 22 20 17 19 27 20 18 12 4 5 8 10 10 11 9 8 5 3
21 20 19 18 19 20 21 21 21 20 21 22 24 24 25 25 23 22 23 22 24 24 22 17 19 20 19 14 10 6 5 8 9 12 13 12 6 2
23 21 18 16 18 19 19 20 21 21 22 23 23 23 24 22 26 24 23 24 21 21 21 17 19 20 16 14 10 7 8 7 5 5 5 8 11 12
Wind_Direction
310 295 292 288 296 302 312 325 279 305 316 324 328 354 17 25 31 30 40 44 44 54 63 73 77 75 78 73 65 77 96 114 121 157 259 304 2 33
294 298 290 292 297 301 302 316 319 276 266 298 304 315 352 353 3 8 15 1 14 26 28 31 35 36 21 34 72 88 87 95 96 95 89 78 59 52
288 289 290 297 298 307 313 321 312 308 283 295 297 303 306 332 326 347 2 4 17 32 24 40 60 74 81 91 92 95 102 109 106 97 100 95 57 41
290 284 282 284 288 292 298 304 310 305 287 293 295 305 315 321 313 335 6 16 17 12 40 53 66 75 96 97 98 100 89 73 66 82 68 31 30 13
275 276 279 282 283 284 283 288 289 288 280 271 282 292 300 301 280 296 312 334 354 16 59 100 84 69 122 110 83 60 43 21 4 2 27 38 35 31
270 268 270 271 275 281 285 288 289 286 284 274 273 275 282 283 266 278 284 294 299 283 264 15 165 152 192 196 241 340 360 24 40 63 55 39 34 28
269 268 268 270 271 272 273 274 282 282 280 282 289 300 307 306 296 293 290 296 297 281 276 258 217 193 177 221 237 223 263 292 64 81 73 49 30 19
269 272 272 270 268 268 266 265 265 272 274 271 280 278 281 279 283 280 272 282 271 277 312 266 244 205 211 218 218 222 212 184 153 111 68 21 1 355
265 270 272 271 270 266 264 263 262 263 269 264 261 260 273 265 265 265 259 241 245 270 308 276 234 216 226 226 230 222 216 185 132 76 26 1 353 348
264 266 268 272 270 267 265 263 264 260 258 256 260 267 259 255 254 253 258 260 275 269 245 245 235 218 224 215 162 176 184 188 304 326 336 340 334 331
266 265 265 267 268 264 260 258 263 262 257 256 258 259 259 259 251 249 244 229 234 226 219 216 225 234 229 195 182 198 203 246 291 287 316 323 321 316
268 268 265 265 268 263 255 253 255 260 261 253 251 240 236 240 246 243 246 233 223 257 232 213 211 227 214 206 205 221 234 257 278 288 300 318 322 320
270 274 275 272 269 264 257 255 254 264 265 257 252 241 237 238 243 247 246 241 233 243 230 211 211 211 232 244 230 232 242 247 283 278 282 311 318 317
266 274 277 282 280 269 258 256 259 258 256 250 245 240 236 241 246 249 247 247 247 247 242 227 231 212 205 243 241 236 230 256 273 254 294 307 314 316
270 276 282 283 279 269 259 257 254 239 242 243 245 249 254 259 257 248 244 248 248 244 240 237 235 234 225 215 222 240 285 254 265 264 293 313 315 319
272 274 276 276 273 270 264 254 248 241 240 242 250 261 263 253 245 240 237 238 242 249 243 238 235 234 232 237 240 253 247 257 233 269 290 306 310 309
280 276 271 264 262 260 256 254 250 245 240 245 249 252 251 246 242 237 233 228 222 222 226 225 226 231 241 247 248 250 253 249 255 266 282 304 308 309
277 267 270 271 265 266 265 263 259 251 248 244 246 248 246 244 242 235 230 228 228 229 225 215 209 213 243 262 250 249 251 252 264 264 283 294 304 315
266 271 272 272 272 272 274 268 257 266 266 253 245 243 242 239 228 228 224 222 226 231 232 221 208 202 210 234 244 229 231 238 246 279 272 272 281 304
277 277 275 278 272 272 273 275 276 275 268 255 246 242 236 231 223 220 215 212 214 216 219 219 213 211 210 216 201 209 220 231 253 265 279 294 295 299
280 279 284 288 286 279 276 274 277 272 267 259 246 241 236 228 226 224 219 216 207 208 213 214 225 230 227 226 231 231 224 237 245 256 275 288 281 286
282 285 287 289 285 279 277 274 269 270 265 254 249 245 241 232 228 225 218 214 210 208 212 210 217 202 201 206 224 224 226 243 239 257 256 252 240 269
283 286 286 292 301 281 273 268 267 265 262 260 254 248 244 232 234 228 222 216 212 201 193 181 191 191 200 206 218 233 237 251 256 268 259 237 238 259